Location: Kellogg
(38.0159°N, 90.0546°W)
Time: 13:00:11
(UTC+00:00)

Envisat - Pass Details

Date: 11 August 2024
Orbit: 762 x 764 km, 98.3° (Epoch: 16 September)

Event Time Altitude Azimuth Distance (km) Brightness Sun altitude
Rises 09:32:52 0° 7° (N) 3,234 6.9 -18.0°
Reaches altitude 10° 09:35:12 10° 4° (N) 2,304 6.0 -17.7°
Maximum altitude 09:40:10 56° 287° (WNW) 904 3.1 -16.9°
Enters shadow 09:42:50 26° 220° (SW) 1,457 3.9 -16.5°
